Time,TemperatureF,DewpointF,PressureIn,WindDirection,WindDirectionDegrees,WindSpeedMPH,WindSpeedGustMPH,Humidity,HourlyPrecipIn,Conditions,Clouds,dailyrainin,SolarRadiationWatts/m^2,SoftwareType,DateUTC
2013-02-23 00:00:00,23.2,17.3,29.90,SW,225,0.0,1.0,78,0.00,,,0.00,0000,Weather View 32 v70,2013-02-23 06:00:00,
2013-02-23 00:05:00,23.0,17.2,29.90,WSW,248,0.0,1.0,78,0.00,,,0.00,0000,Weather View 32 v70,2013-02-23 06:05:00,
2013-02-23 00:10:00,23.2,17.6,29.87,SSE,158,0.0,1.0,79,0.00,,,0.00,0000,Weather View 32 v70,2013-02-23 06:10:00,
2013-02-23 00:15:00,23.2,17.3,29.87,SSW,202,0.0,1.0,78,0.00,,,0.00,0000,Weather View 32 v70,2013-02-23 06:15:00,
2013-02-23 00:20:00,22.8,17.3,29.87,South,180,0.0,0.0,79,0.00,,,0.00,0000,Weather View 32 v70,2013-02-23 06:20:00,
2013-02-23 00:25:00,23.2,17.6,29.87,SW,225,0.0,0.0,79,0.00,,,0.00,0000,Weather View 32 v70,2013-02-23 06:25:00,
2013-02-23 00:30:00,23.2,17.6,29.89,SSE,158,0.0,0.0,79,0.00,,,0.00,0000,Weather View 32 v70,2013-02-23 06:30:00,
2013-02-23 00:35:00,23.2,17.6,29.89,South,180,0.0,0.0,79,0.00,,,0.00,0000,Weather View 32 v70,2013-02-23 06:35:00,
2013-02-23 00:40:00,23.2,17.6,29.89,South,180,0.0,0.0,79,0.00,,,0.00,0000,Weather View 32 v70,2013-02-23 06:40:00,
2013-02-23 00:45:00,23.2,17.6,29.89,SSW,202,0.0,0.0,79,0.00,,,0.00,0000,Weather View 32 v70,2013-02-23 06:45:00,
2013-02-23 00:50:00,23.2,17.6,29.89,SSW,202,0.0,0.0,79,0.00,,,0.00,0000,Weather View 32 v70,2013-02-23 06:50:00,
2013-02-23 00:55:00,22.5,16.6,29.89,SW,225,0.0,0.0,78,0.00,,,0.00,0000,Weather View 32 v70,2013-02-23 06:55:00,
2013-02-23 01:00:00,22.5,16.9,29.89,South,180,0.0,0.0,79,0.00,,,0.00,0000,Weather View 32 v70,2013-02-23 07:00:00,
2013-02-23 01:05:00,22.5,16.9,29.89,SW,225,0.0,0.0,79,0.00,,,0.00,0000,Weather View 32 v70,2013-02-23 07:05:00,
2013-02-23 01:10:00,22.1,16.6,29.89,South,180,0.0,0.0,79,0.00,,,0.00,0000,Weather View 32 v70,2013-02-23 07:10:00,
2013-02-23 01:15:00,21.7,16.2,29.89,South,180,0.0,0.0,79,0.00,,,0.00,0000,Weather View 32 v70,2013-02-23 07:15:00,
2013-02-23 01:20:00,21.7,16.2,29.89,SW,225,0.0,0.0,79,0.00,,,0.00,0000,Weather View 32 v70,2013-02-23 07:20:00,
2013-02-23 01:25:00,21.4,15.9,29.89,WSW,248,0.0,0.0,79,0.00,,,0.00,0000,Weather View 32 v70,2013-02-23 07:25:00,
2013-02-23 01:30:00,21.0,15.5,29.89,SSE,158,0.0,0.0,79,0.00,,,0.00,0000,Weather View 32 v70,2013-02-23 07:30:00,
2013-02-23 01:35:00,20.8,15.4,29.89,WNW,292,0.0,0.0,79,0.00,,,0.00,0000,Weather View 32 v70,2013-02-23 07:35:00,
2013-02-23 01:40:00,20.7,15.2,29.89,SSW,202,0.0,0.0,79,0.00,,,0.00,0000,Weather View 32 v70,2013-02-23 07:40:00,
2013-02-23 01:45:00,20.5,15.0,29.89,SW,225,0.0,0.0,79,0.00,,,0.00,0000,Weather View 32 v70,2013-02-23 07:45:00,
2013-02-23 01:50:00,20.3,14.8,29.89,NW,315,0.0,0.0,79,0.00,,,0.00,0000,Weather View 32 v70,2013-02-23 07:50:00,
2013-02-23 01:55:00,20.3,14.8,29.89,WNW,292,0.0,0.0,79,0.00,,,0.00,0000,Weather View 32 v70,2013-02-23 07:55:00,
2013-02-23 02:00:00,20.3,15.1,29.89,NNW,338,0.0,0.0,80,0.00,,,0.00,0000,Weather View 32 v70,2013-02-23 08:00:00,
2013-02-23 02:05:00,19.9,14.8,29.89,North,0,0.0,0.0,80,0.00,,,0.00,0000,Weather View 32 v70,2013-02-23 08:05:00,
2013-02-23 02:10:00,19.9,14.8,29.88,North,0,0.0,0.0,80,0.00,,,0.00,0000,Weather View 32 v70,2013-02-23 08:10:00,
2013-02-23 02:15:00,19.9,14.8,29.88,NW,315,0.0,0.0,80,0.00,,,0.00,0000,Weather View 32 v70,2013-02-23 08:15:00,
2013-02-23 02:20:00,19.8,14.6,29.88,North,0,0.0,0.0,80,0.00,,,0.00,0000,Weather View 32 v70,2013-02-23 08:20:00,
2013-02-23 02:25:00,19.6,14.4,29.88,NW,315,0.0,0.0,80,0.00,,,0.00,0000,Weather View 32 v70,2013-02-23 08:25:00,
2013-02-23 02:30:00,19.6,14.4,29.88,WNW,292,0.0,0.0,80,0.00,,,0.00,0000,Weather View 32 v70,2013-02-23 08:30:00,
2013-02-23 02:35:00,19.6,14.4,29.88,SW,225,0.0,0.0,80,0.00,,,0.00,0000,Weather View 32 v70,2013-02-23 08:35:00,
2013-02-23 02:40:00,19.6,14.4,29.88,ESE,112,0.0,0.0,80,0.00,,,0.00,0000,Weather View 32 v70,2013-02-23 08:40:00,
2013-02-23 02:45:00,19.6,14.7,29.88,SW,225,0.0,0.0,81,0.00,,,0.00,0000,Weather View 32 v70,2013-02-23 08:45:00,
2013-02-23 02:50:00,19.6,14.7,29.88,SSE,158,0.0,0.0,81,0.00,,,0.00,0000,Weather View 32 v70,2013-02-23 08:50:00,
2013-02-23 02:55:00,19.2,14.4,29.88,SSW,202,0.0,0.0,81,0.00,,,0.00,0000,Weather View 32 v70,2013-02-23 08:55:00,
2013-02-23 03:00:00,19.2,14.4,29.88,South,180,0.0,0.0,81,0.00,,,0.00,0000,Weather View 32 v70,2013-02-23 09:00:00,
2013-02-23 03:05:00,19.0,14.2,29.88,ESE,112,0.0,0.0,81,0.00,,,0.00,0000,Weather View 32 v70,2013-02-23 09:05:00,
2013-02-23 03:10:00,19.0,14.2,29.87,West,270,0.0,0.0,81,0.00,,,0.00,0000,Weather View 32 v70,2013-02-23 09:10:00,
2013-02-23 03:15:00,18.9,14.0,29.87,SW,225,0.0,0.0,81,0.00,,,0.00,0000,Weather View 32 v70,2013-02-23 09:15:00,
2013-02-23 03:20:00,18.9,14.0,29.87,NW,315,0.0,0.0,81,0.00,,,0.00,0000,Weather View 32 v70,2013-02-23 09:20:00,
2013-02-23 03:25:00,18.9,14.0,29.87,WNW,292,0.0,0.0,81,0.00,,,0.00,0000,Weather View 32 v70,2013-02-23 09:25:00,
2013-02-23 03:30:00,18.9,14.0,29.87,NW,315,0.0,0.0,81,0.00,,,0.00,0000,Weather View 32 v70,2013-02-23 09:30:00,
2013-02-23 03:35:00,18.7,13.8,29.87,West,270,0.0,0.0,81,0.00,,,0.00,0000,Weather View 32 v70,2013-02-23 09:35:00,
2013-02-23 03:40:00,18.9,14.0,29.87,SSW,202,0.0,0.0,81,0.00,,,0.00,0000,Weather View 32 v70,2013-02-23 09:40:00,
2013-02-23 03:45:00,18.7,13.8,29.87,NW,315,0.0,0.0,81,0.00,,,0.00,0000,Weather View 32 v70,2013-02-23 09:45:00,
2013-02-23 03:50:00,18.9,14.0,29.87,NW,315,0.0,0.0,81,0.00,,,0.00,0000,Weather View 32 v70,2013-02-23 09:50:00,
2013-02-23 03:55:00,18.9,14.0,29.87,SSW,202,0.0,0.0,81,0.00,,,0.00,0000,Weather View 32 v70,2013-02-23 09:55:00,
2013-02-23 04:00:00,18.9,14.0,29.87,SSW,202,0.0,0.0,81,0.00,,,0.00,0000,Weather View 32 v70,2013-02-23 10:00:00,
2013-02-23 04:05:00,18.5,13.6,29.87,SSW,202,0.0,0.0,81,0.00,,,0.00,0000,Weather View 32 v70,2013-02-23 10:05:00,
2013-02-23 04:10:00,18.5,13.6,29.88,SSW,202,0.0,0.0,81,0.00,,,0.00,0000,Weather View 32 v70,2013-02-23 10:10:00,
2013-02-23 04:15:00,18.5,13.6,29.88,SSW,202,0.0,0.0,81,0.00,,,0.00,0000,Weather View 32 v70,2013-02-23 10:15:00,
2013-02-23 04:20:00,18.3,13.5,29.88,WNW,292,0.0,0.0,81,0.00,,,0.00,0000,Weather View 32 v70,2013-02-23 10:20:00,
2013-02-23 04:25:00,18.1,13.3,29.88,SSW,202,0.0,0.0,81,0.00,,,0.00,0000,Weather View 32 v70,2013-02-23 10:25:00,
2013-02-23 04:30:00,18.1,13.3,29.88,SW,225,0.0,0.0,81,0.00,,,0.00,0000,Weather View 32 v70,2013-02-23 10:30:00,
2013-02-23 04:35:00,18.1,13.3,29.88,North,0,0.0,0.0,81,0.00,,,0.00,0000,Weather View 32 v70,2013-02-23 10:35:00,
2013-02-23 04:40:00,18.1,13.3,29.88,North,0,0.0,0.0,81,0.00,,,0.00,0000,Weather View 32 v70,2013-02-23 10:40:00,
2013-02-23 04:45:00,18.1,13.3,29.88,North,0,0.0,0.0,81,0.00,,,0.00,0000,Weather View 32 v70,2013-02-23 10:45:00,
2013-02-23 04:50:00,18.0,13.1,29.86,North,0,0.0,0.0,81,0.00,,,0.00,0000,Weather View 32 v70,2013-02-23 10:50:00,
2013-02-23 04:55:00,18.1,13.6,29.86,NNW,338,0.0,0.0,82,0.00,,,0.00,0000,Weather View 32 v70,2013-02-23 10:55:00,
2013-02-23 05:00:00,18.1,13.3,29.86,NNW,338,0.0,0.0,81,0.00,,,0.00,0000,Weather View 32 v70,2013-02-23 11:00:00,
2013-02-23 05:05:00,18.1,13.6,29.86,NW,315,0.0,0.0,82,0.00,,,0.00,0000,Weather View 32 v70,2013-02-23 11:05:00,
2013-02-23 05:10:00,17.8,13.2,29.86,SSE,158,0.0,0.0,82,0.00,,,0.00,0000,Weather View 32 v70,2013-02-23 11:10:00,
2013-02-23 05:15:00,17.8,13.2,29.86,NW,315,0.0,0.0,82,0.00,,,0.00,0000,Weather View 32 v70,2013-02-23 11:15:00,
2013-02-23 05:20:00,17.8,13.2,29.86,North,0,0.0,0.0,82,0.00,,,0.00,0000,Weather View 32 v70,2013-02-23 11:20:00,
2013-02-23 05:25:00,17.8,13.2,29.86,WNW,292,0.0,0.0,82,0.00,,,0.00,0000,Weather View 32 v70,2013-02-23 11:25:00,
2013-02-23 05:30:00,17.4,12.6,29.86,NNW,338,0.0,0.0,81,0.00,,,0.00,0000,Weather View 32 v70,2013-02-23 11:30:00,
2013-02-23 05:35:00,17.4,12.6,29.86,North,0,0.0,0.0,81,0.00,,,0.00,0000,Weather View 32 v70,2013-02-23 11:35:00,
2013-02-23 05:40:00,17.4,12.6,29.86,NNW,338,0.0,0.0,81,0.00,,,0.00,0000,Weather View 32 v70,2013-02-23 11:40:00,
2013-02-23 05:45:00,17.2,12.4,29.86,South,180,0.0,0.0,81,0.00,,,0.00,0000,Weather View 32 v70,2013-02-23 11:45:00,
2013-02-23 05:50:00,17.4,12.6,29.86,SW,225,0.0,0.0,81,0.00,,,0.00,0000,Weather View 32 v70,2013-02-23 11:50:00,
2013-02-23 05:55:00,17.1,12.2,29.86,North,0,0.0,0.0,81,0.00,,,0.00,0000,Weather View 32 v70,2013-02-23 11:55:00,
2013-02-23 06:00:00,17.1,12.2,29.86,NW,315,0.0,0.0,81,0.00,,,0.00,0000,Weather View 32 v70,2013-02-23 12:00:00,
2013-02-23 06:05:00,16.9,12.1,29.86,WNW,292,0.0,0.0,81,0.00,,,0.00,0000,Weather View 32 v70,2013-02-23 12:05:00,
2013-02-23 06:10:00,16.7,11.9,29.87,NNW,338,0.0,0.0,81,0.00,,,0.00,0000,Weather View 32 v70,2013-02-23 12:10:00,
2013-02-23 06:15:00,16.7,11.9,29.87,SSW,202,0.0,0.0,81,0.00,,,0.00,0000,Weather View 32 v70,2013-02-23 12:15:00,
2013-02-23 06:20:00,16.7,11.9,29.87,South,180,0.0,0.0,81,0.00,,,0.00,0000,Weather View 32 v70,2013-02-23 12:20:00,
2013-02-23 06:25:00,16.7,11.9,29.87,North,0,0.0,0.0,81,0.00,,,0.00,0000,Weather View 32 v70,2013-02-23 12:25:00,
2013-02-23 06:30:00,16.3,11.5,29.86,North,0,0.0,0.0,81,0.00,,,0.00,0000,Weather View 32 v70,2013-02-23 12:30:00,
2013-02-23 06:35:00,16.3,11.5,29.86,North,0,0.0,0.0,81,0.00,,,0.00,0000,Weather View 32 v70,2013-02-23 12:35:00,
2013-02-23 06:40:00,16.2,11.4,29.86,NNW,338,0.0,0.0,81,0.00,,,0.00,0000,Weather View 32 v70,2013-02-23 12:40:00,
2013-02-23 06:45:00,16.2,11.4,29.86,WNW,292,0.0,0.0,81,0.00,,,0.00,0000,Weather View 32 v70,2013-02-23 12:45:00,
2013-02-23 06:50:00,16.2,11.4,29.87,NW,315,0.0,0.0,81,0.00,,,0.00,0000,Weather View 32 v70,2013-02-23 12:50:00,
2013-02-23 06:55:00,16.3,11.5,29.87,WSW,248,0.0,0.0,81,0.00,,,0.00,0000,Weather View 32 v70,2013-02-23 12:55:00,
2013-02-23 07:00:00,16.2,11.4,29.87,NW,315,0.0,0.0,81,0.00,,,0.00,0000,Weather View 32 v70,2013-02-23 13:00:00,
2013-02-23 07:05:00,16.2,11.4,29.87,NW,315,0.0,0.0,81,0.00,,,0.00,0000,Weather View 32 v70,2013-02-23 13:05:00,
2013-02-23 07:10:00,16.3,11.5,29.86,SW,225,0.0,0.0,81,0.00,,,0.00,0000,Weather View 32 v70,2013-02-23 13:10:00,
2013-02-23 07:15:00,16.7,11.9,29.86,WSW,248,0.0,0.0,81,0.00,,,0.00,0000,Weather View 32 v70,2013-02-23 13:15:00,
2013-02-23 07:20:00,16.7,12.2,29.86,WSW,248,0.0,0.0,82,0.00,,,0.00,0000,Weather View 32 v70,2013-02-23 13:20:00,
2013-02-23 07:25:00,17.1,12.2,29.86,SSW,202,0.0,0.0,81,0.00,,,0.00,0000,Weather View 32 v70,2013-02-23 13:25:00,
2013-02-23 07:30:00,17.4,12.6,29.90,South,180,0.0,0.0,81,0.00,,,0.00,0000,Weather View 32 v70,2013-02-23 13:30:00,
2013-02-23 07:35:00,17.8,13.2,29.90,SW,225,0.0,0.0,82,0.00,,,0.00,0000,Weather View 32 v70,2013-02-23 13:35:00,
2013-02-23 07:40:00,18.5,13.9,29.90,SSW,202,0.0,0.0,82,0.00,,,0.00,0000,Weather View 32 v70,2013-02-23 13:40:00,
2013-02-23 07:45:00,18.9,14.3,29.90,SSW,202,1.0,1.0,82,0.00,,,0.00,0000,Weather View 32 v70,2013-02-23 13:45:00,
2013-02-23 07:50:00,19.6,15.0,29.89,SW,225,0.0,1.0,82,0.00,,,0.00,0000,Weather View 32 v70,2013-02-23 13:50:00,
2013-02-23 07:55:00,20.1,15.5,29.89,SW,225,1.0,1.0,82,0.00,,,0.00,0000,Weather View 32 v70,2013-02-23 13:55:00,
2013-02-23 08:00:00,20.5,15.9,29.89,ESE,112,1.0,1.0,82,0.00,,,0.00,0000,Weather View 32 v70,2013-02-23 14:00:00,
2013-02-23 08:05:00,21.0,16.4,29.89,South,180,1.0,1.0,82,0.00,,,0.00,0000,Weather View 32 v70,2013-02-23 14:05:00,
2013-02-23 08:10:00,21.7,17.1,29.91,South,180,2.0,2.0,82,0.00,,,0.00,0000,Weather View 32 v70,2013-02-23 14:10:00,
2013-02-23 08:15:00,22.3,17.3,29.91,SSW,202,1.0,2.0,81,0.00,,,0.00,0000,Weather View 32 v70,2013-02-23 14:15:00,
2013-02-23 08:20:00,23.5,18.6,29.91,SW,225,1.0,2.0,81,0.00,,,0.00,0000,Weather View 32 v70,2013-02-23 14:20:00,
2013-02-23 08:25:00,24.3,19.0,29.91,SW,225,1.0,2.0,80,0.00,,,0.00,0000,Weather View 32 v70,2013-02-23 14:25:00,
2013-02-23 08:30:00,25.0,19.4,29.91,SW,225,2.0,2.0,79,0.00,,,0.00,0000,Weather View 32 v70,2013-02-23 14:30:00,
2013-02-23 08:35:00,25.7,19.8,29.91,SW,225,2.0,2.0,78,0.00,,,0.00,0000,Weather View 32 v70,2013-02-23 14:35:00,
2013-02-23 08:40:00,25.9,19.7,29.91,WSW,248,2.0,2.0,77,0.00,,,0.00,0000,Weather View 32 v70,2013-02-23 14:40:00,
2013-02-23 08:45:00,26.2,20.0,29.91,WNW,292,2.0,2.0,77,0.00,,,0.00,0000,Weather View 32 v70,2013-02-23 14:45:00,
2013-02-23 08:50:00,26.8,20.2,29.91,SSE,158,1.0,2.0,76,0.00,,,0.00,0000,Weather View 32 v70,2013-02-23 14:50:00,
2013-02-23 08:55:00,27.0,20.1,29.91,WNW,292,1.0,2.0,75,0.00,,,0.00,0000,Weather View 32 v70,2013-02-23 14:55:00,
2013-02-23 09:00:00,27.5,20.3,29.91,SSW,202,2.0,2.0,74,0.00,,,0.00,0000,Weather View 32 v70,2013-02-23 15:00:00,
2013-02-23 09:04:00,27.7,20.5,29.91,SSW,202,1.0,2.0,74,0.00,,,0.00,0000,Weather View 32 v70,2013-02-23 15:04:00,
2013-02-23 09:10:00,28.6,21.3,29.92,West,270,2.0,2.0,74,0.00,,,0.00,0000,Weather View 32 v70,2013-02-23 15:10:00,
2013-02-23 09:15:00,28.4,20.9,29.92,WSW,248,2.0,2.0,73,0.00,,,0.00,0000,Weather View 32 v70,2013-02-23 15:15:00,
2013-02-23 09:20:00,28.6,21.0,29.92,West,270,2.0,2.0,73,0.00,,,0.00,0000,Weather View 32 v70,2013-02-23 15:20:00,
2013-02-23 09:25:00,28.9,21.0,29.92,WNW,292,2.0,2.0,72,0.00,,,0.00,0000,Weather View 32 v70,2013-02-23 15:25:00,
2013-02-23 09:30:00,28.9,21.0,29.93,West,270,2.0,2.0,72,0.00,,,0.00,0000,Weather View 32 v70,2013-02-23 15:30:00,
2013-02-23 09:35:00,29.1,21.2,29.93,NNW,338,2.0,2.0,72,0.00,,,0.00,0000,Weather View 32 v70,2013-02-23 15:35:00,
2013-02-23 09:40:00,29.7,21.7,29.93,WSW,248,2.0,2.0,72,0.00,,,0.00,0000,Weather View 32 v70,2013-02-23 15:40:00,
2013-02-23 09:45:00,29.8,21.2,29.93,South,180,2.0,2.0,70,0.00,,,0.00,0000,Weather View 32 v70,2013-02-23 15:45:00,
2013-02-23 09:50:00,30.0,21.4,29.93,SW,225,2.0,2.0,70,0.00,,,0.00,0000,Weather View 32 v70,2013-02-23 15:50:00,
2013-02-23 09:55:00,30.4,21.8,29.93,SSE,158,2.0,2.0,70,0.00,,,0.00,0000,Weather View 32 v70,2013-02-23 15:55:00,
2013-02-23 10:00:00,30.7,22.1,29.93,NW,315,2.0,2.0,70,0.00,,,0.00,0000,Weather View 32 v70,2013-02-23 16:00:00,
2013-02-23 10:05:00,31.1,22.1,29.93,SW,225,2.0,2.0,69,0.00,,,0.00,0000,Weather View 32 v70,2013-02-23 16:05:00,
2013-02-23 10:10:00,31.8,23.1,29.94,SW,225,2.0,2.0,70,0.00,,,0.00,0000,Weather View 32 v70,2013-02-23 16:10:00,
2013-02-23 10:15:00,32.0,22.3,29.94,SW,225,2.0,2.0,67,0.00,,,0.00,0000,Weather View 32 v70,2013-02-23 16:15:00,
2013-02-23 10:20:00,32.4,23.0,29.94,SW,225,1.0,2.0,68,0.00,,,0.00,0000,Weather View 32 v70,2013-02-23 16:20:00,
2013-02-23 10:25:00,32.7,22.6,29.94,WNW,292,2.0,2.0,66,0.00,,,0.00,0000,Weather View 32 v70,2013-02-23 16:25:00,
2013-02-23 10:30:00,33.1,22.2,29.94,SW,225,2.0,2.0,64,0.00,,,0.00,0000,Weather View 32 v70,2013-02-23 16:30:00,
2013-02-23 10:35:00,33.3,23.1,29.94,SW,225,3.0,3.0,66,0.00,,,0.00,0000,Weather View 32 v70,2013-02-23 16:35:00,
2013-02-23 10:40:00,33.8,23.6,29.94,SSE,158,2.0,3.0,66,0.00,,,0.00,0000,Weather View 32 v70,2013-02-23 16:40:00,
2013-02-23 10:45:00,34.3,24.2,29.94,SSW,202,2.0,3.0,66,0.00,,,0.00,0000,Weather View 32 v70,2013-02-23 16:45:00,
2013-02-23 10:50:00,34.7,23.8,29.93,West,270,2.0,3.0,64,0.00,,,0.00,0000,Weather View 32 v70,2013-02-23 16:50:00,
2013-02-23 10:55:00,34.9,23.9,29.93,NW,315,2.0,3.0,64,0.00,,,0.00,0000,Weather View 32 v70,2013-02-23 16:55:00,
2013-02-23 11:00:00,34.9,23.6,29.93,SW,225,2.0,3.0,63,0.00,,,0.00,0000,Weather View 32 v70,2013-02-23 17:00:00,
2013-02-23 11:05:00,35.2,23.5,29.93,SW,225,2.0,3.0,62,0.00,,,0.00,0000,Weather View 32 v70,2013-02-23 17:05:00,
2013-02-23 11:10:00,35.6,24.2,29.94,SSW,202,2.0,3.0,63,0.00,,,0.00,0000,Weather View 32 v70,2013-02-23 17:10:00,
2013-02-23 11:15:00,35.8,24.0,29.94,SSW,202,2.0,3.0,62,0.00,,,0.00,0000,Weather View 32 v70,2013-02-23 17:15:00,
2013-02-23 11:20:00,36.1,24.4,29.94,SSE,158,3.0,3.0,62,0.00,,,0.00,0000,Weather View 32 v70,2013-02-23 17:20:00,
2013-02-23 11:25:00,36.3,24.5,29.94,South,180,3.0,3.0,62,0.00,,,0.00,0000,Weather View 32 v70,2013-02-23 17:25:00,
2013-02-23 11:30:00,36.3,24.1,29.95,WSW,248,3.0,3.0,61,0.00,,,0.00,0000,Weather View 32 v70,2013-02-23 17:30:00,
2013-02-23 11:35:00,36.3,23.8,29.95,South,180,3.0,3.0,60,0.00,,,0.00,0000,Weather View 32 v70,2013-02-23 17:35:00,
2013-02-23 11:40:00,36.3,23.8,29.95,South,180,3.0,3.0,60,0.03,,,0.03,0000,Weather View 32 v70,2013-02-23 17:40:00,
2013-02-23 11:45:00,36.9,24.3,29.95,South,180,2.0,3.0,60,0.03,,,0.03,0000,Weather View 32 v70,2013-02-23 17:45:00,
2013-02-23 11:50:00,36.9,23.9,29.95,West,270,3.0,3.0,59,0.03,,,0.03,0000,Weather View 32 v70,2013-02-23 17:50:00,
2013-02-23 11:55:00,37.2,24.6,29.95,South,180,2.0,3.0,60,0.03,,,0.03,0000,Weather View 32 v70,2013-02-23 17:55:00,
2013-02-23 12:00:00,37.2,24.2,29.95,South,180,2.0,3.0,59,0.06,,,0.06,0000,Weather View 32 v70,2013-02-23 18:00:00,
2013-02-23 12:05:00,37.2,24.2,29.95,SW,225,2.0,3.0,59,0.06,,,0.06,0000,Weather View 32 v70,2013-02-23 18:05:00,
2013-02-23 12:10:00,37.2,24.2,29.93,SW,225,2.0,3.0,59,0.06,,,0.06,0000,Weather View 32 v70,2013-02-23 18:10:00,
2013-02-23 12:15:00,37.8,24.7,29.93,SSW,202,2.0,3.0,59,0.09,,,0.09,0000,Weather View 32 v70,2013-02-23 18:15:00,
2013-02-23 12:20:00,37.9,24.9,29.93,SSE,158,2.0,3.0,59,0.09,,,0.09,0000,Weather View 32 v70,2013-02-23 18:20:00,
2013-02-23 12:25:00,37.8,23.9,29.93,SSW,202,2.0,3.0,57,0.12,,,0.12,0000,Weather View 32 v70,2013-02-23 18:25:00,
2013-02-23 12:30:00,37.8,23.9,29.92,SSW,202,1.0,3.0,57,0.12,,,0.12,0000,Weather View 32 v70,2013-02-23 18:30:00,
2013-02-23 12:35:00,37.8,24.3,29.92,WNW,292,1.0,3.0,58,0.15,,,0.15,0000,Weather View 32 v70,2013-02-23 18:35:00,
2013-02-23 12:40:00,37.8,23.9,29.92,NNE,22,1.0,3.0,57,0.12,,,0.15,0000,Weather View 32 v70,2013-02-23 18:40:00,
2013-02-23 12:45:00,37.8,23.9,29.92,SSW,202,1.0,3.0,57,0.12,,,0.15,0000,Weather View 32 v70,2013-02-23 18:45:00,
2013-02-23 12:50:00,37.6,23.7,29.91,SW,225,2.0,3.0,57,0.15,,,0.18,0000,Weather View 32 v70,2013-02-23 18:50:00,
2013-02-23 12:55:00,37.6,22.9,29.91,NNW,338,2.0,3.0,55,0.18,,,0.21,0000,Weather View 32 v70,2013-02-23 18:55:00,
2013-02-23 13:00:00,37.6,23.3,29.91,East,90,2.0,3.0,56,0.18,,,0.24,0000,Weather View 32 v70,2013-02-23 19:00:00,
2013-02-23 13:05:00,37.8,23.9,29.91,SSE,158,3.0,3.0,57,0.18,,,0.24,0000,Weather View 32 v70,2013-02-23 19:05:00,
2013-02-23 13:10:00,37.6,23.7,29.90,WNW,292,2.0,3.0,57,0.21,,,0.27,0000,Weather View 32 v70,2013-02-23 19:10:00,
2013-02-23 13:15:00,37.8,23.9,29.90,SSE,158,2.0,3.0,57,0.18,,,0.27,0000,Weather View 32 v70,2013-02-23 19:15:00,
2013-02-23 13:20:00,37.8,23.9,29.90,SSW,202,2.0,3.0,57,0.21,,,0.30,0000,Weather View 32 v70,2013-02-23 19:20:00,
2013-02-23 13:25:00,37.6,23.7,29.90,SSW,202,2.0,3.0,57,0.18,,,0.30,0000,Weather View 32 v70,2013-02-23 19:25:00,
2013-02-23 13:30:00,37.6,23.3,29.89,West,270,2.0,3.0,56,0.18,,,0.30,0000,Weather View 32 v70,2013-02-23 19:30:00,
2013-02-23 13:35:00,37.4,23.5,29.89,SW,225,2.0,3.0,57,0.15,,,0.30,0000,Weather View 32 v70,2013-02-23 19:35:00,
2013-02-23 13:40:00,37.4,23.1,29.89,NW,315,2.0,3.0,56,0.15,,,0.30,0000,Weather View 32 v70,2013-02-23 19:40:00,
2013-02-23 13:45:00,37.6,23.3,29.89,WNW,292,2.0,3.0,56,0.15,,,0.30,0000,Weather View 32 v70,2013-02-23 19:45:00,
2013-02-23 13:50:00,37.2,23.0,29.89,NW,315,2.0,3.0,56,0.12,,,0.30,0000,Weather View 32 v70,2013-02-23 19:50:00,
2013-02-23 13:55:00,37.0,23.2,29.89,South,180,2.0,3.0,57,0.09,,,0.30,0000,Weather View 32 v70,2013-02-23 19:55:00,
2013-02-23 14:00:00,37.2,23.0,29.89,NW,315,2.0,3.0,56,0.09,,,0.33,0000,Weather View 32 v70,2013-02-23 20:00:00,
2013-02-23 14:05:00,37.0,22.8,29.89,North,0,1.0,3.0,56,0.09,,,0.33,0000,Weather View 32 v70,2013-02-23 20:05:00,
2013-02-23 14:10:00,37.0,22.8,29.88,North,0,1.0,2.0,56,0.06,,,0.33,0000,Weather View 32 v70,2013-02-23 20:10:00,
2013-02-23 14:15:00,37.6,23.7,29.88,SW,225,2.0,2.0,57,0.06,,,0.33,0000,Weather View 32 v70,2013-02-23 20:15:00,
2013-02-23 14:20:00,37.6,23.7,29.88,ESE,112,2.0,2.0,57,0.03,,,0.33,0000,Weather View 32 v70,2013-02-23 20:20:00,
2013-02-23 14:25:00,37.4,24.0,29.88,SW,225,2.0,2.0,58,0.03,,,0.33,0000,Weather View 32 v70,2013-02-23 20:25:00,
2013-02-23 14:30:00,37.4,23.5,29.87,SW,225,2.0,2.0,57,0.03,,,0.33,0000,Weather View 32 v70,2013-02-23 20:30:00,
2013-02-23 14:35:00,37.2,23.4,29.87,WSW,248,2.0,3.0,57,0.03,,,0.33,0000,Weather View 32 v70,2013-02-23 20:35:00,
2013-02-23 14:40:00,37.4,24.0,29.87,SSW,202,2.0,3.0,58,0.03,,,0.33,0000,Weather View 32 v70,2013-02-23 20:40:00,
2013-02-23 14:45:00,37.2,23.8,29.87,South,180,2.0,3.0,58,0.03,,,0.33,0000,Weather View 32 v70,2013-02-23 20:45:00,
2013-02-23 14:50:00,37.0,23.6,29.87,SSW,202,2.0,3.0,58,0.03,,,0.33,0000,Weather View 32 v70,2013-02-23 20:50:00,
2013-02-23 14:55:00,37.2,23.4,29.87,WNW,292,2.0,3.0,57,0.03,,,0.33,0000,Weather View 32 v70,2013-02-23 20:55:00,
2013-02-23 15:00:00,36.9,23.0,29.87,SW,225,2.0,3.0,57,0.00,,,0.33,0000,Weather View 32 v70,2013-02-23 21:00:00,
2013-02-23 15:05:00,36.9,23.4,29.87,SSW,202,2.0,3.0,58,0.00,,,0.33,0000,Weather View 32 v70,2013-02-23 21:05:00,
2013-02-23 15:10:00,36.7,23.3,29.86,South,180,1.0,3.0,58,0.00,,,0.33,0000,Weather View 32 v70,2013-02-23 21:10:00,
2013-02-23 15:15:00,36.9,23.4,29.86,SW,225,1.0,3.0,58,0.03,,,0.36,0000,Weather View 32 v70,2013-02-23 21:15:00,
2013-02-23 15:20:00,36.7,23.3,29.86,SSW,202,1.0,3.0,58,0.03,,,0.36,0000,Weather View 32 v70,2013-02-23 21:20:00,
2013-02-23 15:25:00,36.9,23.4,29.86,SSW,202,1.0,3.0,58,0.03,,,0.36,0000,Weather View 32 v70,2013-02-23 21:25:00,
2013-02-23 15:30:00,36.7,23.3,29.87,South,180,2.0,3.0,58,0.03,,,0.36,0000,Weather View 32 v70,2013-02-23 21:30:00,
2013-02-23 15:35:00,36.7,23.3,29.87,SW,225,2.0,3.0,58,0.03,,,0.36,0000,Weather View 32 v70,2013-02-23 21:35:00,
2013-02-23 15:40:00,36.9,23.0,29.87,SW,225,3.0,3.0,57,0.03,,,0.36,0000,Weather View 32 v70,2013-02-23 21:40:00,
2013-02-23 15:45:00,36.9,23.0,29.87,SW,225,3.0,3.0,57,0.03,,,0.36,0000,Weather View 32 v70,2013-02-23 21:45:00,
2013-02-23 15:50:00,36.9,23.0,29.87,West,270,3.0,3.0,57,0.03,,,0.36,0000,Weather View 32 v70,2013-02-23 21:50:00,
2013-02-23 15:55:00,36.9,23.4,29.87,South,180,3.0,3.0,58,0.03,,,0.36,0000,Weather View 32 v70,2013-02-23 21:55:00,
2013-02-23 16:00:00,36.5,22.7,29.87,SSW,202,3.0,3.0,57,0.03,,,0.36,0000,Weather View 32 v70,2013-02-23 22:00:00,
2013-02-23 16:05:00,36.5,22.7,29.87,SSW,202,2.0,3.0,57,0.03,,,0.36,0000,Weather View 32 v70,2013-02-23 22:05:00,
2013-02-23 16:10:00,36.3,22.5,29.86,South,180,2.0,3.0,57,0.03,,,0.36,0000,Weather View 32 v70,2013-02-23 22:10:00,
2013-02-23 16:15:00,36.3,22.5,29.86,NNW,338,2.0,3.0,57,0.00,,,0.36,0000,Weather View 32 v70,2013-02-23 22:15:00,
2013-02-23 16:20:00,36.1,22.4,29.86,WSW,248,2.0,3.0,57,0.00,,,0.36,0000,Weather View 32 v70,2013-02-23 22:20:00,
2013-02-23 16:25:00,36.1,22.4,29.86,WSW,248,3.0,3.0,57,0.00,,,0.36,0000,Weather View 32 v70,2013-02-23 22:25:00,
2013-02-23 16:30:00,35.8,22.0,29.87,WSW,248,3.0,3.0,57,0.00,,,0.36,0000,Weather View 32 v70,2013-02-23 22:30:00,
2013-02-23 16:35:00,36.0,22.2,29.87,SW,225,2.0,3.0,57,0.00,,,0.36,0000,Weather View 32 v70,2013-02-23 22:35:00,
2013-02-23 16:40:00,35.8,22.0,29.87,SSW,202,2.0,3.0,57,0.00,,,0.36,0000,Weather View 32 v70,2013-02-23 22:40:00,
2013-02-23 16:45:00,35.6,22.3,29.87,SW,225,2.0,3.0,58,0.00,,,0.36,0000,Weather View 32 v70,2013-02-23 22:45:00,
2013-02-23 16:50:00,35.8,22.4,29.86,SSW,202,2.0,3.0,58,0.00,,,0.36,0000,Weather View 32 v70,2013-02-23 22:50:00,
2013-02-23 16:55:00,35.6,22.3,29.86,NNE,22,2.0,3.0,58,0.00,,,0.36,0000,Weather View 32 v70,2013-02-23 22:55:00,
2013-02-23 17:00:00,35.4,22.1,29.86,SW,225,3.0,3.0,58,0.00,,,0.36,0000,Weather View 32 v70,2013-02-23 23:00:00,
2013-02-23 17:05:00,35.4,22.5,29.86,SW,225,2.0,3.0,59,0.00,,,0.36,0000,Weather View 32 v70,2013-02-23 23:05:00,
2013-02-23 17:10:00,35.1,22.2,29.85,North,0,1.0,3.0,59,0.00,,,0.36,0000,Weather View 32 v70,2013-02-23 23:10:00,
2013-02-23 17:15:00,34.9,21.6,29.85,WNW,292,1.0,3.0,58,0.00,,,0.36,0000,Weather View 32 v70,2013-02-23 23:15:00,
2013-02-23 17:20:00,34.7,21.8,29.85,SW,225,1.0,3.0,59,0.00,,,0.36,0000,Weather View 32 v70,2013-02-23 23:20:00,
2013-02-23 17:25:00,34.7,21.8,29.85,WNW,292,1.0,3.0,59,0.00,,,0.36,0000,Weather View 32 v70,2013-02-23 23:25:00,
2013-02-23 17:30:00,34.3,21.5,29.86,North,0,1.0,3.0,59,0.00,,,0.36,0000,Weather View 32 v70,2013-02-23 23:30:00,
2013-02-23 17:35:00,34.2,21.7,29.86,NW,315,1.0,3.0,60,0.00,,,0.36,0000,Weather View 32 v70,2013-02-23 23:35:00,
2013-02-23 17:40:00,34.0,21.5,29.86,NNW,338,1.0,3.0,60,-0.36,,,0.36,0000,Weather View 32 v70,2013-02-23 23:40:00,
2013-02-23 17:45:00,33.6,21.2,29.86,North,0,1.0,3.0,60,0.00,,,0.36,0000,Weather View 32 v70,2013-02-23 23:45:00,
2013-02-23 17:50:00,33.3,21.3,29.84,NNW,338,1.0,3.0,61,0.00,,,0.36,0000,Weather View 32 v70,2013-02-23 23:50:00,
2013-02-23 17:55:00,32.9,21.3,29.84,WNW,292,0.0,3.0,62,0.00,,,0.36,0000,Weather View 32 v70,2013-02-23 23:55:00,
2013-02-23 18:00:00,32.7,21.1,29.84,NW,315,0.0,3.0,62,0.00,,,0.36,0000,Weather View 32 v70,2013-02-24 00:00:00,
2013-02-23 18:04:00,32.5,21.0,29.84,NNE,22,0.0,2.0,62,0.00,,,0.36,0000,Weather View 32 v70,2013-02-24 00:04:00,
2013-02-23 18:09:00,32.2,20.6,29.83,NNW,338,0.0,2.0,62,0.00,,,0.36,0000,Weather View 32 v70,2013-02-24 00:09:00,
2013-02-23 18:15:00,31.8,21.0,29.83,NNW,338,0.0,1.0,64,0.00,,,0.36,0000,Weather View 32 v70,2013-02-24 00:15:00,
2013-02-23 18:20:00,31.8,21.4,29.83,NNW,338,0.0,1.0,65,0.00,,,0.36,0000,Weather View 32 v70,2013-02-24 00:20:00,
2013-02-23 18:25:00,31.3,20.9,29.83,North,0,0.0,1.0,65,0.00,,,0.36,0000,Weather View 32 v70,2013-02-24 00:25:00,
2013-02-23 18:30:00,31.1,20.7,29.83,North,0,0.0,1.0,65,0.00,,,0.36,0000,Weather View 32 v70,2013-02-24 00:30:00,
2013-02-23 18:35:00,30.7,20.7,29.83,North,0,0.0,1.0,66,0.00,,,0.36,0000,Weather View 32 v70,2013-02-24 00:35:00,
2013-02-23 18:40:00,30.6,20.5,29.83,NW,315,0.0,1.0,66,0.00,,,0.36,0000,Weather View 32 v70,2013-02-24 00:40:00,
2013-02-23 18:45:00,30.4,20.7,29.83,NNW,338,0.0,1.0,67,0.00,,,0.36,0000,Weather View 32 v70,2013-02-24 00:45:00,
2013-02-23 18:50:00,30.4,21.1,29.84,NNW,338,0.0,1.0,68,0.00,,,0.36,0000,Weather View 32 v70,2013-02-24 00:50:00,
2013-02-23 18:55:00,30.0,20.7,29.84,West,270,0.0,0.0,68,0.00,,,0.36,0000,Weather View 32 v70,2013-02-24 00:55:00,
2013-02-23 19:00:00,29.8,20.6,29.84,West,270,0.0,0.0,68,-0.36,,,0.36,0000,Weather View 32 v70,2013-02-24 01:00:00,
2013-02-23 19:05:00,29.7,20.7,29.84,North,0,0.0,0.0,69,0.00,,,0.36,0000,Weather View 32 v70,2013-02-24 01:05:00,
2013-02-23 19:10:00,29.7,20.7,29.84,North,0,0.0,0.0,69,0.00,,,0.36,0000,Weather View 32 v70,2013-02-24 01:10:00,
2013-02-23 19:15:00,29.5,20.6,29.84,NNW,338,0.0,0.0,69,0.00,,,0.36,0000,Weather View 32 v70,2013-02-24 01:15:00,
2013-02-23 19:20:00,29.3,20.7,29.84,North,0,0.0,0.0,70,0.00,,,0.36,0000,Weather View 32 v70,2013-02-24 01:20:00,
2013-02-23 19:24:00,29.3,20.7,29.84,NW,315,0.0,0.0,70,0.00,,,0.36,0000,Weather View 32 v70,2013-02-24 01:24:00,
2013-02-23 19:29:00,28.9,20.4,29.85,North,0,0.0,0.0,70,0.00,,,0.36,0000,Weather View 32 v70,2013-02-24 01:29:00,
2013-02-23 19:34:00,28.9,20.4,29.85,NNW,338,0.0,0.0,70,0.00,,,0.36,0000,Weather View 32 v70,2013-02-24 01:34:00,
2013-02-23 19:39:00,28.9,20.7,29.85,NNE,22,0.0,0.0,71,0.00,,,0.36,0000,Weather View 32 v70,2013-02-24 01:39:00,
2013-02-23 19:44:00,28.6,20.4,29.85,NNE,22,0.0,0.0,71,0.00,,,0.36,0000,Weather View 32 v70,2013-02-24 01:44:00,
2013-02-23 19:49:00,28.4,20.2,29.85,SSE,158,0.0,0.0,71,0.00,,,0.36,0000,Weather View 32 v70,2013-02-24 01:49:00,
2013-02-23 19:54:00,28.6,20.7,29.85,SW,225,0.0,0.0,72,0.00,,,0.36,0000,Weather View 32 v70,2013-02-24 01:54:00,
2013-02-23 19:59:00,28.2,20.4,29.85,North,0,0.0,0.0,72,0.00,,,0.36,0000,Weather View 32 v70,2013-02-24 01:59:00,
2013-02-23 20:04:00,28.2,20.4,29.85,North,0,0.0,0.0,72,0.00,,,0.36,0000,Weather View 32 v70,2013-02-24 02:04:00,
2013-02-23 20:09:00,28.2,20.4,29.86,North,0,0.0,0.0,72,0.00,,,0.36,0000,Weather View 32 v70,2013-02-24 02:09:00,
2013-02-23 20:14:00,27.9,20.0,29.86,NNE,22,0.0,0.0,72,0.00,,,0.36,0000,Weather View 32 v70,2013-02-24 02:14:00,
2013-02-23 20:19:00,27.9,20.3,29.86,East,90,0.0,0.0,73,0.00,,,0.36,0000,Weather View 32 v70,2013-02-24 02:19:00,
2013-02-23 20:24:00,27.9,20.3,29.86,North,0,0.0,0.0,73,0.00,,,0.36,0000,Weather View 32 v70,2013-02-24 02:24:00,
2013-02-23 20:29:00,27.5,20.0,29.85,ENE,68,0.0,0.0,73,0.00,,,0.36,0000,Weather View 32 v70,2013-02-24 02:29:00,
2013-02-23 20:34:00,27.5,20.0,29.85,North,0,0.0,0.0,73,0.00,,,0.36,0000,Weather View 32 v70,2013-02-24 02:34:00,
2013-02-23 20:40:00,27.3,19.8,29.85,North,0,0.0,0.0,73,0.00,,,0.36,0000,Weather View 32 v70,2013-02-24 02:40:00,
2013-02-23 20:45:00,27.5,20.0,29.85,NW,315,0.0,0.0,73,-0.36,,,0.36,0000,Weather View 32 v70,2013-02-24 02:45:00,
2013-02-23 20:50:00,27.1,19.6,29.85,North,0,0.0,0.0,73,0.00,,,0.36,0000,Weather View 32 v70,2013-02-24 02:50:00,
2013-02-23 20:55:00,27.0,19.8,29.85,North,0,0.0,0.0,74,0.00,,,0.36,0000,Weather View 32 v70,2013-02-24 02:55:00,
2013-02-23 21:00:00,26.8,19.6,29.85,ENE,68,0.0,0.0,74,0.00,,,0.36,0000,Weather View 32 v70,2013-02-24 03:00:00,
2013-02-23 21:05:00,26.8,19.6,29.85,SW,225,0.0,0.0,74,-0.36,,,0.36,0000,Weather View 32 v70,2013-02-24 03:05:00,
2013-02-23 21:10:00,26.8,19.6,29.86,SSW,202,0.0,0.0,74,0.00,,,0.36,0000,Weather View 32 v70,2013-02-24 03:10:00,
2013-02-23 21:15:00,26.8,19.6,29.86,SSW,202,0.0,0.0,74,-0.36,,,0.36,0000,Weather View 32 v70,2013-02-24 03:15:00,
2013-02-23 21:20:00,26.4,19.6,29.86,North,0,0.0,0.0,75,0.00,,,0.36,0000,Weather View 32 v70,2013-02-24 03:20:00,
2013-02-23 21:25:00,26.4,19.6,29.86,NNE,22,0.0,0.0,75,0.00,,,0.36,0000,Weather View 32 v70,2013-02-24 03:25:00,
2013-02-23 21:30:00,26.1,18.9,29.85,NW,315,0.0,0.0,74,-0.36,,,0.36,0000,Weather View 32 v70,2013-02-24 03:30:00,
2013-02-23 21:35:00,26.1,19.2,29.85,North,0,0.0,0.0,75,0.00,,,0.36,0000,Weather View 32 v70,2013-02-24 03:35:00,
2013-02-23 21:40:00,25.9,19.0,29.85,North,0,0.0,0.0,75,0.00,,,0.36,0000,Weather View 32 v70,2013-02-24 03:40:00,
2013-02-23 21:45:00,26.1,19.2,29.85,North,0,0.0,0.0,75,0.00,,,0.36,0000,Weather View 32 v70,2013-02-24 03:45:00,
2013-02-23 21:50:00,25.7,18.9,29.86,SE,135,0.0,0.0,75,0.00,,,0.36,0000,Weather View 32 v70,2013-02-24 03:50:00,
2013-02-23 21:55:00,25.5,18.7,29.86,North,0,0.0,0.0,75,0.00,,,0.36,0000,Weather View 32 v70,2013-02-24 03:55:00,
2013-02-23 22:00:00,25.3,18.8,29.86,North,0,0.0,0.0,76,0.00,,,0.36,0000,Weather View 32 v70,2013-02-24 04:00:00,
2013-02-23 22:05:00,25.3,18.8,29.86,North,0,0.0,0.0,76,0.00,,,0.36,0000,Weather View 32 v70,2013-02-24 04:05:00,
2013-02-23 22:10:00,25.3,18.8,29.85,South,180,0.0,0.0,76,0.00,,,0.36,0000,Weather View 32 v70,2013-02-24 04:10:00,
2013-02-23 22:15:00,25.3,18.8,29.85,North,0,0.0,0.0,76,0.00,,,0.36,0000,Weather View 32 v70,2013-02-24 04:15:00,
2013-02-23 22:20:00,25.3,18.8,29.85,North,0,0.0,0.0,76,0.00,,,0.36,0000,Weather View 32 v70,2013-02-24 04:20:00,
2013-02-23 22:24:00,25.0,18.5,29.85,North,0,0.0,0.0,76,0.00,,,0.36,0000,Weather View 32 v70,2013-02-24 04:24:00,
2013-02-23 22:30:00,25.0,18.5,29.85,NW,315,0.0,0.0,76,0.00,,,0.36,0000,Weather View 32 v70,2013-02-24 04:30:00,
2013-02-23 22:34:00,24.8,18.3,29.85,SW,225,0.0,0.0,76,0.00,,,0.36,0000,Weather View 32 v70,2013-02-24 04:34:00,
2013-02-23 22:39:00,24.8,18.6,29.85,East,90,0.0,0.0,77,0.00,,,0.36,0000,Weather View 32 v70,2013-02-24 04:39:00,
2013-02-23 22:44:00,24.6,18.1,29.85,SSW,202,0.0,0.0,76,0.00,,,0.36,0000,Weather View 32 v70,2013-02-24 04:44:00,
2013-02-23 22:49:00,24.6,18.4,29.85,South,180,0.0,0.0,77,0.00,,,0.36,0000,Weather View 32 v70,2013-02-24 04:49:00,
2013-02-23 22:55:00,24.6,18.4,29.85,North,0,0.0,0.0,77,0.00,,,0.36,0000,Weather View 32 v70,2013-02-24 04:55:00,
2013-02-23 23:00:00,24.3,18.1,29.85,North,0,0.0,0.0,77,0.00,,,0.36,0000,Weather View 32 v70,2013-02-24 05:00:00,
2013-02-23 23:05:00,24.3,18.1,29.85,South,180,0.0,0.0,77,0.00,,,0.36,0000,Weather View 32 v70,2013-02-24 05:05:00,
2013-02-23 23:10:00,23.9,17.7,29.85,North,0,0.0,0.0,77,0.00,,,0.36,0000,Weather View 32 v70,2013-02-24 05:10:00,
2013-02-23 23:15:00,23.9,17.7,29.85,North,0,0.0,0.0,77,0.00,,,0.36,0000,Weather View 32 v70,2013-02-24 05:15:00,
2013-02-23 23:20:00,23.9,17.7,29.85,NNW,338,0.0,0.0,77,0.00,,,0.36,0000,Weather View 32 v70,2013-02-24 05:20:00,
2013-02-23 23:25:00,23.5,17.4,29.85,North,0,0.0,0.0,77,0.00,,,0.36,0000,Weather View 32 v70,2013-02-24 05:25:00,
2013-02-23 23:35:00,23.4,17.5,29.85,WSW,248,0.0,0.0,78,0.00,,,0.36,0000,Weather View 32 v70,2013-02-24 05:35:00,
2013-02-23 23:40:00,23.2,17.3,29.85,South,180,0.0,0.0,78,0.00,,,0.36,0000,Weather View 32 v70,2013-02-24 05:40:00,
2013-02-23 23:45:00,23.2,17.3,29.85,South,180,0.0,0.0,78,0.00,,,0.36,0000,Weather View 32 v70,2013-02-24 05:45:00,
2013-02-23 23:50:00,23.2,17.3,29.86,North,0,0.0,0.0,78,0.00,,,0.36,0000,Weather View 32 v70,2013-02-24 05:50:00,
2013-02-23 23:55:00,23.2,17.3,29.86,SW,225,0.0,0.0,78,0.00,,,0.36,0000,Weather View 32 v70,2013-02-24 05:55:00,
2013-02-23 23:59:00,23.2,17.3,29.86,SW,225,0.0,0.0,78,0.00,,,0.36,0000,Weather View 32 v70,2013-02-24 05:59:00,